SHIYAN 24C 02

导读 | 豆包AI

SHIYAN 24C 02(试验二十四号C卫星)是中国发射的科学试验卫星,于北京时间2023年12月26日,在广东阳江附近海域由太原卫星发射中心通过长征十一号运载火箭送入预定轨道,本次任务是长征系列运载火箭第503次飞行。该卫星主要承担空间科学技术实验任务,将为我国开展空间领域新技术验证与相关科学研究提供平台支撑。

基本信息
目录编号:
58651
目录名称:
SHIYAN 24C 02
国际标识:
2023-206B
轨道中心:
EARTH
卫星名称:
SHIYAN 24C 02
卫星全名:
--
卫星状态:
在轨 (已飞行857 天)
发射日期:
2023-12-25 UTC
国别 :
中国 (CN)
星等 :
--
轨道信息
数据来源 国际轨道数据
星历时间: 2026-04-30T01:24:50+0800
19小时前
查看轨道信息
半长轴: 6951.205km
偏心率: 0.000059
轨道倾角: 97.403°
近地点辐角 306.441°
升交点赤经 90.008°
平近点角 53.676°
近地点: 572.657km
远地点: 573.479km
周期: 96.128分钟
每日圈数: 14.980028
详细信息
使用方式:
暂无
2D轨道图
3D轨道图
轨道高度分析图
轨道倾角分析图
轨道综合分析图
查看轨道综合分析图